User: anonymous   Login
Location: *
(33.8649°S, 62.1526°E)
Time: 01:56:23
(UTC+00:00)
Language:

OAO 2 Rocket - Orbit

View from above orbital plane
View from above orbital plane
View from above satellite
View from above satellite

Ground track
Ground track

The orbit data is extracted from the following two-line orbital elements,

1 03598U 68110B   21102.44676186  .00000074  00000-0  21790-4 0  9993
2 03598  34.9949  17.0470 0048723  26.9211 333.3996 14.54521051748811
Epoch (UTC): 12 April 2021 10:43:20
Eccentricity: 0.0048723
inclination: 34.9949°
perigee height: 676 km
apogee height: 745 km
right ascension of ascending node: 17.0470°
argument of perigee: 26.9211°
revolutions per day: 14.54521051
mean anomaly at epoch: 333.3996°
orbit number at epoch: 74881

The dashed part of the orbit path shows where the satellite is in the earth's shadow,  

DLR